{"data":{"norad_id":65061,"epoch":"2026-09-20T22:00:03.000096Z","epoch_age_seconds":84903,"freshness":"FRESH","line1":"1 65061U 25165F   26263.91670139 -.00030151  00000+0 -93451-3 0  9998","line2":"2 65061  97.2855 335.1327 0001703  87.4537 113.2595 15.33471713  5797","mean_motion":15.33471713,"eccentricity":0.0001703,"inclination_deg":97.2855,"raan_deg":335.1327,"arg_perigee_deg":87.4537,"mean_anomaly_deg":113.2595,"bstar":-0.00093451,"rev_number":579,"period_min":93.90456881548,"perigee_km":464.29823133948,"apogee_km":466.62916173672,"semimajor_km":6843.6006965381,"source":"CELESTRAK","updated_at":"2026-09-21T09:00:35.498786Z"}}